This is the latest recevied weather packets stored in our database for station/object DC1MPP-9. If no packets are shown the sender has not sent any weather packets the latest 10 day(s).
| Time | Temp. | Humidity | Pressure | Rain* | Wind** | Luminosity | Snow |
|---|---|---|---|---|---|---|---|
| 1788169861 | 27.78° C | 56% | 961 hPa | - | - | - | - |
| 1788169620 | 26.67° C | 58% | 961 hPa | - | - | - | - |
| 1788169379 | 26.67° C | 61% | 961 hPa | - | - | - | - |
| 1788169138 | 27.22° C | 56% | 961 hPa | - | - | - | - |
| 1788168897 | 26.67° C | 60% | 961 hPa | - | - | - | - |
| 1788168656 | 26.67° C | 65% | 961 hPa | - | - | - | - |
| 1788168415 | 26.11° C | 67% | 961 hPa | - | - | - | - |
| 1788168174 | 25.56° C | 63% | 961 hPa | - | - | - | - |
| 1788167692 | 26.11° C | 70% | 961 hPa | - | - | - | - |
| 1788167210 | 25.56° C | 68% | 961 hPa | - | - | - | - |
| 1788166969 | 25.56° C | 74% | 961 hPa | - | - | - | - |
| 1788166728 | 25° C | 67% | 961 hPa | - | - | - | - |
| 1788166487 | 26.11° C | 74% | 961 hPa | - | - | - | - |
| 1788166245 | 25.56° C | 77% | 961 hPa | - | - | - | - |
| 1788166004 | 25.56° C | 68% | 961 hPa | - | - | - | - |
| 1788165763 | 25.56° C | 73% | 961 hPa | - | - | - | - |
| 1788165522 | 25.56° C | 74% | 961 hPa | - | - | - | - |
| 1788165281 | 25° C | 74% | 961 hPa | - | - | - | - |
| 1788165040 | 24.44° C | 75% | 961 hPa | - | - | - | - |
| 1788164799 | 24.44° C | 75% | 961 hPa | - | - | - | - |
| 1788163594 | 23.89° C | 85% | 961 hPa | - | - | - | - |
| 1788163353 | 23.89° C | 85% | 961 hPa | - | - | - | - |
| 1788163112 | 23.33° C | 83% | 961 hPa | - | - | - | - |
| 1788162871 | 23.33° C | 83% | 961 hPa | - | - | - | - |
| 1788162389 | 23.33° C | 92% | 960 hPa | - | - | - | - |
* Rain since midnight (hover to see other rain measurements)
** Current wind speed in m/s (hover to see current wind gust speed)